Location: Oakhurst
(33.6448°N, 111.9543°W)
Time: 00:09:42
(UTC+00:00)

FO-99 - Pass Details

Date: 06 August 2021
Orbit: 471 x 503 km, 97.2° (Epoch: 24 September)

Event Time Altitude Azimuth Distance (km) Brightness Sun altitude
Exits shadow 03:55:25 - 197° (SSW) 1,925 ? -17.7°
Reaches altitude 10° 03:55:59 10° 200° (SSW) 1,710 ? -17.8°
Maximum altitude 03:59:15 30° 263° (W) 934 ? -18.3°
Drops below altitude 10° 04:02:32 10° 325° (NW) 1,717 ? -18.9°
Sets 04:04:49 0° 337° (NNW) 2,603 ? -19.3°
